Location: Miles
(41.4492°N, 81.6087°W)
Time: 06:49:39
(UTC+00:00)

Vanguard 1 Rocket - Pass Details

Date: 19 September 2024
Orbit: 650 x 4218 km, 34.3° (Epoch: 05 October)

Event Time Altitude Azimuth Distance (km) Brightness Sun altitude
Rises 07:48:02 0° 230° (SW) 4,695 - -35.8°
Reaches altitude 10° 07:50:38 10° 225° (SW) 4,049 - -35.4°
Exits shadow 07:58:33 47° 187° (S) 2,981 9.6 -34.3°
Maximum altitude 08:01:50 53° 152° (SSE) 3,107 9.8 -33.8°
Drops below altitude 10° 08:22:27 10° 85° (E) 7,060 12.6 -30.7°
Sets 08:28:50 0° 82° (E) 8,343 13.3 -29.7°
